CW6421 Weather Reports


time (UTC)temp
C
wind
direction
speed
KPH
gust
KPH
rain 1hr
cm
rain 24hr
cm
rain mn
cm
humidity
%
barometer
mb
20260503184530 23 234 9.7 14.5 0.00 0.00 0.00 39 1009.7
20260503183527 23 225 8.0 14.5 0.00 0.00 0.00 38 1009.7
20260503182527 24 223 6.4 16.1 0.00 0.00 0.00 37 1009.7
20260503181529 24 244 9.7 17.7 0.00 0.00 0.00 35 1009.7
20260503180528 25 245 12.9 24.1 0.00 0.00 0.00 35 1009.8
20260503175527 25 241 11.3 20.9 0.00 0.00 0.00 34 1009.8
20260503174530 25 238 11.3 22.5 0.00 0.00 0.00 33 1009.8
20260503173527 26 240 12.9 20.9 0.00 0.00 0.00 32 1009.8
20260503171531 26 225 11.3 25.7 0.00 0.00 0.00 31 1009.8
20260503170527 26 235 9.7 24.1 0.00 0.00 0.00 30 1009.9
20260503150529 28 277 16.1 35.4 0.00 0.00 0.00 30 1011.0
20260503130527 29 250 25.7 38.6 0.00 0.00 0.00 31 1012.0
20260503110528 29 216 17.7 22.5 0.00 0.00 0.00 31 1013.1
20260503081529 21 180 9.7 14.5 0.00 0.00 0.00 49 1013.8
20260503071530 17 181 6.4 9.7 0.00 0.00 0.00 54 1013.9
20260503070527 17 183 6.4 12.9 0.00 0.00 0.00 55 1014.0
20260503053527 14 199 8.0 9.7 0.00 0.00 0.00 58 1013.9
20260503052527 14 206 6.4 11.3 0.00 0.00 0.00 58 1013.9
20260503051529 14 153 6.4 11.3 0.00 0.00 0.00 58 1013.9
20260503050527 13 170 6.4 9.7 0.00 0.00 0.00 58 1014.0
20260503045526 13 157 9.7 9.7 0.00 0.00 0.00 58 1014.0
20260503042527 13 191 4.8 9.7 0.00 0.00 0.00 58 1014.0
20260503041529 13 169 6.4 9.7 0.00 0.00 0.00 57 1014.0
20260503040528 13 168 4.8 9.7 0.00 0.00 0.00 57 1014.2
20260503035527 13 156 6.4 8.0 0.00 0.00 0.00 56 1014.2
20260503034527 13 134 6.4 9.7 0.00 0.00 0.00 56 1014.2
20260503033527 14 139 8.0 8.0 0.00 0.00 0.00 56 1014.2
20260503032525 14 132 8.0 9.7 0.00 0.00 0.00 55 1014.2
20260503031529 14 150 8.0 9.7 0.00 0.00 0.00 55 1014.2
20260503030527 14 142 6.4 8.0 0.00 0.00 0.00 54 1014.3
20260503025527 14 147 6.4 8.0 0.00 0.00 0.00 54 1014.3
20260503024528 15 139 6.4 8.0 0.00 0.00 0.00 54 1014.3
20260503022527 15 131 3.2 8.0 0.00 0.00 0.00 53 1014.3
20260503020530 15 138 6.4 9.7 0.00 0.00 0.00 52 1014.6
20260503015527 15 130 6.4 8.0 0.00 0.00 0.00 52 1014.6
20260503014528 15 160 3.2 9.7 0.00 0.00 0.00 52 1014.6
20260503013527 15 153 3.2 9.7 0.00 0.00 0.00 52 1014.6
20260503011529 15 162 4.8 9.7 0.00 0.00 0.00 52 1014.6
20260503010527 15 160 4.8 11.3 0.00 0.00 0.00 53 1015.0
20260503005526 15 169 4.8 12.9 0.00 0.00 0.00 53 1015.0
20260503003525 15 169 1.6 12.9 0.00 0.00 0.00 53 1015.0
20260503002526 15 158 3.2 11.3 0.00 0.00 0.00 53 1015.0
20260503001529 15 162 8.0 12.9 0.00 0.00 0.00 54 1015.0
20260503000528 15 150 9.7 12.9 0.00 0.00 0.00 54 1015.5
20260502235526 15 160 9.7 11.3 0.00 0.00 0.00 54 1015.5
20260502234531 15 151 3.2 11.3 0.00 0.00 0.00 55 1015.5
20260502233528 15 165 1.6 12.9 0.00 0.00 0.00 55 1015.5
20260502232526 15 169 0.0 11.3 0.00 0.00 0.00 55 1015.5
20260502231527 15 151 8.0 12.9 0.00 0.00 0.00 55 1015.5
20260502230527 15 153 9.7 14.5 0.00 0.00 0.00 55 1015.7
20260502225526 15 158 6.4 12.9 0.00 0.00 0.00 55 1015.7
20260502224530 15 168 8.0 12.9 0.00 0.00 0.00 54 1015.7
20260502223528 16 153 6.4 16.1 0.00 0.00 0.00 54 1016.1
20260502221529 16 169 6.4 16.1 0.00 0.00 0.00 53 1016.1
20260502220528 16 157 11.3 19.3 0.00 0.00 0.00 53 1016.1
20260502215527 16 161 9.7 16.1 0.00 0.00 0.00 52 1016.1
20260502214530 16 155 8.0 19.3 0.00 0.00 0.00 52 1016.1
20260502213526 16 152 12.9 17.7 0.00 0.00 0.00 51 1016.1
20260502212527 17 154 8.0 17.7 0.00 0.00 0.00 51 1016.1
20260502211530 17 166 6.4 16.1 0.00 0.00 0.00 50 1016.1
20260502204528 17 165 8.0 16.1 0.00 0.00 0.00 48 1016.4
20260502203528 17 161 8.0 16.1 0.00 0.00 0.00 48 1016.4
20260502202526 18 168 9.7 16.1 0.00 0.00 0.00 46 1016.4
20260502201529 18 166 8.0 17.7 0.00 0.00 0.00 46 1016.4
20260502200528 18 180 8.0 17.7 0.00 0.00 0.00 45 1016.5
20260502195526 18 170 12.9 17.7 0.00 0.00 0.00 45 1016.5
20260502193528 19 150 9.7 17.7 0.00 0.00 0.00 43 1016.5
20260502191529 20 212 9.7 19.3 0.00 0.00 0.00 41 1016.5
20260502190530 20 219 8.0 24.1 0.00 0.00 0.00 41 1016.4
20260502185528 21 210 11.3 25.7 0.00 0.00 0.00 39 1016.4